• In Belgium
  • List of Countries
  • For 7 days
  • Water Temperature
  • Satellite Maps
  • Weather Map
  • Weather Widgets
  • user-avatar
    Login

    Hourly Weather Kannapolis

    Today, 22 November, Wednesday

    Time Temperature Precipitation Wind Pressure Humidity
    00:00 +11°C° 0.2 mm 1 mps 741 mmHg 94%
    01:00 +11°C° 0.2 mm 1 mps 740 mmHg 95%
    02:00 +10°C° 0 mm 1 mps 740 mmHg 95%
    03:00 +10°C° 0 mm 1 mps 740 mmHg 96%
    04:00 +9°C° 0 mm 1 mps 739 mmHg 96%
    05:00 +9°C° 0 mm 1 mps 740 mmHg 96%
    06:00 +9°C° 0 mm 1 mps 740 mmHg 95%
    07:00 +8°C° 0 mm 2 mps 740 mmHg 94%
    08:00 +10°C° 0 mm 2 mps 741 mmHg 85%
    09:00 +11°C° 0 mm 3 mps 742 mmHg 76%
    10:00 +12°C° 0 mm 4 mps 742 mmHg 67%
    11:00 +13°C° 0 mm 4 mps 742 mmHg 62%
    12:00 +14°C° 0 mm 4 mps 742 mmHg 56%
    13:00 +14°C° 0 mm 4 mps 742 mmHg 51%
    14:00 +14°C° 0 mm 3 mps 742 mmHg 50%
    15:00 +14°C° 0 mm 3 mps 742 mmHg 49%
    16:00 +13°C° 0 mm 3 mps 742 mmHg 48%
    17:00 +12°C° 0 mm 3 mps 742 mmHg 50%
    18:00 +10°C° 0 mm 3 mps 743 mmHg 53%
    19:00 +8°C° 0 mm 3 mps 743 mmHg 55%
    20:00 +7°C° 0 mm 3 mps 744 mmHg 55%
    21:00 +5°C° 0 mm 3 mps 744 mmHg 55%
    22:00 +5°C° 0 mm 3 mps 744 mmHg 55%
    23:00 +5°C° 0 mm 2 mps 744 mmHg 56%

    Tomorrow, 23 November, Thursday

    Time Temperature Precipitation Wind Pressure Humidity
    00:00 +5°C° 0 mm 2 mps 744 mmHg 57%
    01:00 +4°C° 0 mm 2 mps 744 mmHg 58%
    02:00 +4°C° 0 mm 2 mps 744 mmHg 61%
    03:00 +3°C° 0 mm 2 mps 744 mmHg 63%
    04:00 +3°C° 0 mm 2 mps 744 mmHg 65%
    05:00 +2°C° 0 mm 2 mps 744 mmHg 68%
    06:00 +2°C° 0 mm 2 mps 744 mmHg 70%
    07:00 +2°C° 0 mm 2 mps 744 mmHg 72%
    08:00 +3°C° 0 mm 2 mps 744 mmHg 67%
    09:00 +5°C° 0 mm 2 mps 744 mmHg 61%
    10:00 +6°C° 0 mm 2 mps 744 mmHg 55%
    11:00 +9°C° 0 mm 1 mps 744 mmHg 51%
    12:00 +11°C° 0 mm 1 mps 743 mmHg 48%
    13:00 +12°C° 0 mm 0 mps 742 mmHg 44%
    14:00 +12°C° 0 mm 0 mps 742 mmHg 45%
    15:00 +12°C° 0 mm 0 mps 741 mmHg 47%
    16:00 +12°C° 0 mm 0 mps 741 mmHg 49%
    17:00 +11°C° 0 mm 1 mps 741 mmHg 54%
    18:00 +9°C° 0 mm 1 mps 741 mmHg 59%
    19:00 +8°C° 0 mm 1 mps 742 mmHg 64%
    20:00 +7°C° 0 mm 1 mps 742 mmHg 66%
    21:00 +7°C° 0 mm 1 mps 742 mmHg 68%
    22:00 +6°C° 0 mm 0 mps 742 mmHg 70%
    23:00 +5°C° 0 mm 0 mps 742 mmHg 72%

    Day after tomorrow, 24 November, Friday

    Time Temperature Precipitation Wind Pressure Humidity
    00:00 +5°C° 0 mm 0 mps 742 mmHg 73%
    01:00 +5°C° 0 mm 0 mps 742 mmHg 75%
    02:00 +4°C° 0 mm 0 mps 742 mmHg 76%
    03:00 +4°C° 0 mm 0 mps 742 mmHg 78%
    04:00 +5°C° 0 mm 1 mps 742 mmHg 79%
    05:00 +4°C° 0 mm 0 mps 742 mmHg 81%
    06:00 +4°C° 0 mm 0 mps 742 mmHg 82%
    07:00 +3°C° 0 mm 0 mps 742 mmHg 83%
    08:00 +6°C° 0 mm 0 mps 743 mmHg 75%
    09:00 +8°C° 0 mm 0 mps 743 mmHg 66%
    10:00 +10°C° 0 mm 0 mps 743 mmHg 58%
    11:00 +12°C° 0 mm 0 mps 743 mmHg 54%
    12:00 +14°C° 0 mm 1 mps 742 mmHg 50%
    13:00 +16°C° 0 mm 1 mps 742 mmHg 45%
    14:00 +16°C° 0 mm 1 mps 741 mmHg 47%
    15:00 +15°C° 0 mm 1 mps 741 mmHg 48%
    16:00 +15°C° 0 mm 1 mps 741 mmHg 49%
    17:00 +13°C° 0 mm 1 mps 741 mmHg 54%
    18:00 +12°C° 0 mm 1 mps 741 mmHg 58%
    19:00 +10°C° 0 mm 1 mps 741 mmHg 63%
    20:00 +9°C° 0 mm 1 mps 742 mmHg 64%
    21:00 +9°C° 0 mm 1 mps 742 mmHg 66%
    22:00 +8°C° 0 mm 1 mps 742 mmHg 68%
    23:00 +8°C° 0 mm 1 mps 742 mmHg 69%

    25 November, Saturday

    Time Temperature Precipitation Wind Pressure Humidity
    00:00 +7°C° 0 mm 1 mps 741 mmHg 71%
    01:00 +7°C° 0 mm 1 mps 741 mmHg 72%
    02:00 +7°C° 0 mm 1 mps 741 mmHg 73%
    03:00 +6°C° 0 mm 1 mps 740 mmHg 75%
    04:00 +6°C° 0 mm 1 mps 740 mmHg 76%
    05:00 +6°C° 0 mm 1 mps 740 mmHg 78%
    06:00 +6°C° 0 mm 1 mps 740 mmHg 80%
    07:00 +6°C° 0 mm 1 mps 739 mmHg 81%
    08:00 +8°C° 0 mm 1 mps 739 mmHg 75%
    09:00 +10°C° 0 mm 1 mps 739 mmHg 68%
    10:00 +12°C° 0 mm 1 mps 740 mmHg 62%
    11:00 +14°C° 0 mm 2 mps 739 mmHg 59%
    12:00 +15°C° 0 mm 2 mps 738 mmHg 55%
    13:00 +17°C° 0 mm 2 mps 737 mmHg 52%
    14:00 +17°C° 0 mm 2 mps 737 mmHg 53%
    15:00 +17°C° 0 mm 2 mps 736 mmHg 55%
    16:00 +17°C° 0 mm 2 mps 736 mmHg 57%
    17:00 +15°C° 0 mm 2 mps 736 mmHg 62%
    18:00 +14°C° 0 mm 1 mps 737 mmHg 67%
    19:00 +12°C° 0 mm 1 mps 737 mmHg 72%
    20:00 +12°C° 0 mm 1 mps 738 mmHg 74%
    21:00 +10°C° 0 mm 2 mps 738 mmHg 77%
    22:00 +10°C° 0 mm 2 mps 738 mmHg 79%
    23:00 +9°C° 0 mm 2 mps 738 mmHg 81%

    26 November, Sunday

    Time Temperature Precipitation Wind Pressure Humidity
    00:00 +9°C° 0 mm 2 mps 738 mmHg 83%
    01:00 +8°C° 0 mm 2 mps 739 mmHg 84%
    02:00 +7°C° 0 mm 2 mps 739 mmHg 84%
    03:00 +7°C° 0 mm 2 mps 739 mmHg 84%
    04:00 +6°C° 0 mm 2 mps 740 mmHg 84%
    05:00 +6°C° 0 mm 2 mps 740 mmHg 83%
    06:00 +5°C° 0 mm 2 mps 741 mmHg 82%
    07:00 +5°C° 0 mm 2 mps 741 mmHg 82%
    08:00 +6°C° 0 mm 2 mps 742 mmHg 72%
    09:00 +8°C° 0 mm 3 mps 742 mmHg 62%
    10:00 +8°C° 0 mm 4 mps 743 mmHg 52%
    11:00 +10°C° 0 mm 4 mps 743 mmHg 48%
    12:00 +11°C° 0 mm 3 mps 743 mmHg 44%
    13:00 +12°C° 0 mm 3 mps 742 mmHg 40%
    14:00 +13°C° 0 mm 2 mps 742 mmHg 41%
    15:00 +13°C° 0 mm 2 mps 742 mmHg 41%
    16:00 +13°C° 0 mm 1 mps 742 mmHg 42%
    17:00 +11°C° 0 mm 1 mps 743 mmHg 46%
    18:00 +10°C° 0 mm 1 mps 743 mmHg 50%
    19:00 +7°C° 0 mm 0 mps 744 mmHg 54%
    20:00 +7°C° 0 mm 1 mps 744 mmHg 56%
    21:00 +7°C° 0 mm 1 mps 744 mmHg 57%
    22:00 +6°C° 0 mm 1 mps 745 mmHg 58%
    23:00 +6°C° 0 mm 1 mps 745 mmHg 60%

    27 November, Monday

    Time Temperature Precipitation Wind Pressure Humidity
    00:00 +5°C° 0 mm 1 mps 745 mmHg 61%
    01:00 +5°C° 0 mm 1 mps 745 mmHg 63%
    02:00 +5°C° 0 mm 1 mps 745 mmHg 64%
    03:00 +3°C° 0 mm 0 mps 745 mmHg 65%
    04:00 +3°C° 0 mm 0 mps 745 mmHg 67%
    05:00 +3°C° 0 mm 0 mps 746 mmHg 68%
    06:00 +2°C° 0 mm 0 mps 746 mmHg 69%
    07:00 +2°C° 0 mm 0 mps 746 mmHg 70%
    08:00 +5°C° 0 mm 1 mps 747 mmHg 63%
    09:00 +7°C° 0 mm 1 mps 747 mmHg 57%
    10:00 +10°C° 0 mm 1 mps 747 mmHg 50%
    11:00 +10°C° 0 mm 2 mps 747 mmHg 47%
    12:00 +13°C° 0 mm 2 mps 746 mmHg 44%
    13:00 +14°C° 0 mm 2 mps 745 mmHg 40%
    14:00 +14°C° 0 mm 2 mps 745 mmHg 41%
    15:00 +14°C° 0 mm 2 mps 745 mmHg 43%
    16:00 +14°C° 0 mm 2 mps 745 mmHg 44%
    17:00 +12°C° 0 mm 2 mps 745 mmHg 48%
    18:00 +9°C° 0 mm 2 mps 745 mmHg 52%
    19:00 +8°C° 0 mm 1 mps 746 mmHg 56%
    20:00 +8°C° 0 mm 1 mps 746 mmHg 57%
    21:00 +7°C° 0 mm 1 mps 746 mmHg 59%
    22:00 +7°C° 0 mm 1 mps 746 mmHg 61%
    23:00 +7°C° 0 mm 1 mps 746 mmHg 64%
    Show more